Location: El Carrer d�Abaix
(41.5797°N, 2.1791°E)
Time: 22:53:47
(UTC+00:00)

Okean 1 Rocket - Pass Details

Date: 06 June 2020
Orbit: 605 x 635 km, 82.5° (Epoch: 11 July)

Event Time Altitude Azimuth Distance (km) Brightness Sun altitude
Rises 20:20:10 0° 355° (N) 2,923 7.3 -9.4°
Reaches altitude 10° 20:22:27 10° 359° (N) 2,007 6.3 -9.7°
Maximum altitude 20:26:51 62° 80° (E) 703 3.2 -10.3°
Enters shadow 20:30:51 12° 161° (SSE) 1,844 4.9 -10.8°
